Regional Weather Roundup
Issued by NWS

Home | Current Version | Previous Version | Graphics & Text | Print | Product List | Glossary On
Versions: 1 2 3 4 5 6 7 8 9 10 11 12 13 14 15 16 17 18 19 20 21 22 23 24 25 26 27 28 29 30 31 32 33 34 35 36 37 38 39 40 41 42 43 44 45 46 47 48 49 50
000
ASUS43 KOAX 230410
RWRNE

WEATHER ROUNDUP FOR NEBRASKA
NATIONAL WEATHER SERVICE OMAHA NE
1100 PM CDT WED MAR 22 2017

NOTES: SATELLITE DATA IS BEING USED TO AUGMENT CLOUD COVER ABOVE
       12000 FEET.
       "FAIR" INDICATES FEW OR NO CLOUDS BELOW 12,000 FEET WITH NO
       SIGNIFICANT WEATHER AND/OR OBSTRUCTIONS TO VISIBILITY.

  * THESE STATIONS DO NOT REPORT WEATHER SUCH AS RAIN...SNOW OR FOG.

NEZ001>004-019>022-054>056-230500-
NEBRASKA PANHANDLE

CITY           SKY/WX    TMP DP  RH WIND       PRES   REMARKS
SCOTTSBLUFF    CLOUDY    51  36  56 E20       29.82S
ALLIANCE       CLOUDY    47  36  65 S23G32    29.84S
CHADRON        PTCLDY    54  36  50 S24G31    29.77S
KIMBALL        CLOUDY    55  39  56 S17       29.86S
SIDNEY         CLOUDY    51  37  58 S21G28    29.88R
$$

NEZ057>060-069>072-079>082-230500-
SOUTHWEST NEBRASKA

CITY           SKY/WX    TMP DP  RH WIND       PRES   REMARKS
NORTH PLATTE   CLOUDY    43  30  60 SE9       29.97F
IMPERIAL       CLOUDY    45  31  58 SE16      29.93F
LEXINGTON      PTCLDY    46  28  50 SE14      30.00F
MCCOOK         PTCLDY    46  33  60 SE13      29.98F
OGALLALA       CLOUDY    45  32  60 SE10G18   29.93F
$$

NEZ005>010-023>029-035>040-094-230500-
NORTH CENTRAL NEBRASKA

CITY           SKY/WX    TMP DP  RH WIND       PRES   REMARKS
VALENTINE      PTCLDY    44  29  55 S12       29.92F
AINSWORTH      CLOUDY    43  30  59 S13       29.95F
BROKEN BOW     CLOUDY    47  26  44 S14       29.99F
O`NEILL        CLOUDY    47  25  41 S13       30.00S
ORD            CLOUDY    49  22  34 SE13      30.01F
THEDFORD       PTCLDY    44  31  60 S13       29.96S
$$

NEZ041-046>049-061>064-073>077-083>087-230500-
SOUTH CENTRAL NEBRASKA

CITY           SKY/WX    TMP DP  RH WIND       PRES   REMARKS
GRAND ISLAND   CLOUDY    50  27  40 S18G25    30.06F
AURORA         CLOUDY    51  25  36 S15G22    30.07F
HASTINGS       CLOUDY    51  28  41 S15       30.07F
HEBRON         CLOUDY    51  26  37 SE10      30.12S
HOLDREGE       MOCLDY    48  32  53 SE18G24   30.01F
KEARNEY *      CLOUDY    50  28  43 S21G26    30.04F
YORK           CLOUDY    50  27  40 S15       30.09F
$$

NEZ011>018-030>034-042>045-230500-
NORTHEAST NEBRASKA

CITY           SKY/WX    TMP DP  RH WIND       PRES   REMARKS
NORFOLK        CLOUDY    45  26  47 SE17G26   30.06F
ALBION         CLOUDY    50  23  34 SE14      30.04F
BLAIR          CLOUDY    45  26  46 SE17G24   30.15F
FREMONT        CLOUDY    46  27  47 SE21G26   30.13F
TEKAMAH        CLOUDY    44  25  47 SE17      30.16F
WAYNE          CLOUDY    42  28  59 SE18      30.10S
$$

NEZ050>053-065>068-078-088>093-230500-
SOUTHEAST NEBRASKA

CITY           SKY/WX    TMP DP  RH WIND       PRES   REMARKS
LINCOLN        CLOUDY    52  26  36 SE15G25   30.14F
OMAHA EPPLEY   CLOUDY    46  24  42 SE20G29   30.18S
BEATRICE       CLOUDY    52  28  39 SE7       30.13S
FALLS CITY     CLOUDY    50  26  39 SE12      30.16F
NEBRASKA CITY  CLOUDY    47  18  31 SE14G22   30.16F
PLATTSMOUTH    CLOUDY    46  21  38 SE14      30.17S
$$

NEZ044-045-051>053-067-230500-
OMAHA AREA

CITY           SKY/WX    TMP DP  RH WIND       PRES   REMARKS
OMAHA EPPLEY   CLOUDY    46  24  42 SE20G29   30.18S
BLAIR          CLOUDY    45  26  46 SE17G24   30.15F
FREMONT        CLOUDY    46  27  47 SE21G26   30.13F
MILLARD        CLOUDY    48  28  46 SE13G18   30.16F
OFFUTT AFB     CLOUDY    46  24  42 SE18      30.17S
PLATTSMOUTH    CLOUDY    46  21  38 SE14      30.17S
WAHOO          CLOUDY    46  26  44 SE15      30.14S
$$




USA.gov is the U.S. government's official web portal to all federal, state and local government web resources and services.